[[{"header":{"parameterUnit":"m.s-1","parameterCategory":1,"la1":30.2991,"la2":30.254,"lo1":-89.0895,"lo2":-89.0444,"dy":0.0017,"dx":0.0017,"nx":28,"ny":28,"refTime":"2024-03-21T21:00:00:Z","depth":0,"parameterNumber":2,"parameterNumberName":"U-component_of_WINDS"},"data":[0,0,0,0,0,0,0,0,0,0,0,0,0,0,0,0,0,0,0,0,0,0,0,0,0,0,0,0,0,0,0,0,0,0,0,0,0,0,0,0,0,0,0,0,0,0,0,0,0,0,0,0,0,0,0,0,0,0,1.5261,1.5261,0,1.529,1.529,1.5291,1.5287,1.5286,1.5286,1.5285,1.5314,1.5315,1.5316,0,0,0,0,0,0,0,0,0,0,0,0,0,1.5204,1.5205,1.5261,1.5261,1.5262,1.529,1.529,1.5291,1.5287,1.5286,1.5286,1.5285,1.5313,1.5315,1.5316,0,0,0,0,0,0,0,0,0,0,0,0,0,1.523,1.5205,1.5261,1.5263,1.5264,1.529,1.529,1.5291,1.5287,1.5286,1.5285,1.5285,1.5313,1.5315,1.5316,1.5342,0,0,1.5322,1.5323,0,0,0,0,0,0,0,0,1.5229,1.5232,1.5262,1.5263,1.5264,1.5284,1.5281,1.5308,1.5287,1.5278,1.5285,1.5284,1.5304,1.5307,1.5314,1.5343,1.5344,1.5322,1.5323,1.5324,1.5324,0,0,0,0,0,0,0,1.5227,1.5231,1.5272,1.5263,1.5264,1.5263,1.5266,1.5286,1.5295,1.5279,1.5278,1.5282,1.5304,1.5312,1.5314,1.5345,1.5322,1.5324,1.5325,1.5325,1.54,1.5401,0,0,0,0,0,0,1.5224,1.5229,1.5271,1.5273,1.5244,1.5265,1.5268,1.5278,1.5295,1.5296,1.5283,1.5282,1.5309,1.5312,1.5315,1.5348,1.5324,1.5326,1.5327,1.5399,1.54,1.5401,0,0,0,0,0,0,1.5223,1.5228,1.527,1.5251,1.5257,1.5267,1.5278,1.5279,1.5287,1.5298,1.5299,1.5289,1.5309,1.5313,1.5336,1.5349,1.5326,1.5328,1.5398,1.5399,1.5401,1.5413,0,0,0,0,0,0,1.5221,1.5228,1.5237,1.5252,1.5258,1.529,1.5279,1.528,1.529,1.5289,1.5304,1.5305,1.5309,1.5333,1.5338,1.5351,1.5329,1.5397,1.5399,1.54,1.5411,1.5415,1.5417,0,0,0,0,0,1.5219,1.5238,1.5237,1.5242,1.5269,1.5291,1.5294,1.5298,1.5291,1.5301,1.5308,1.5305,1.5347,1.5336,1.5341,1.5355,1.5396,1.5398,1.54,1.541,1.5414,1.5417,0,0,0,0,0,0,1.5223,1.524,1.5239,1.5263,1.5276,1.529,1.5302,1.5302,1.5316,1.5315,1.5318,1.5322,1.5346,1.5353,1.534,1.5382,1.5371,1.5374,1.5377,1.538,1.5383,1.5381,1.5331,0,0,0,0,0,1.5227,1.5243,1.5257,1.5277,1.5283,1.5292,1.5301,1.5304,1.5317,1.5322,1.5331,1.5343,1.536,1.5371,1.5386,1.5413,1.5417,1.5425,1.5428,1.543,1.5433,1.545,1.5455,1.5408,1.5408,1.5408,0,0,1.5235,1.5246,1.5256,1.5278,1.5288,1.5305,1.5296,1.5314,1.5327,1.5324,1.5347,1.5355,1.5369,1.5395,1.5407,1.5402,1.5447,1.5433,1.5435,1.5436,1.5453,1.5457,1.5461,1.5409,1.5409,1.5409,0,0,1.5258,1.5267,1.5286,1.5297,1.5313,1.532,1.5324,1.534,1.5345,1.5368,1.5367,1.5383,1.5411,1.5422,1.5431,1.5463,1.5461,1.5468,1.5483,1.55,1.5504,1.5507,1.552,1.5524,1.5471,1.5471,1.5471,0,1.5265,1.5291,1.5296,1.5315,1.5326,1.5326,1.5346,1.5356,1.5376,1.5384,1.5378,1.5415,1.5424,1.5454,1.5462,1.5469,1.5476,1.5466,1.5503,1.5506,1.5509,1.5522,1.5526,1.5471,1.5471,1.5471,1.5471,0,1.5301,1.5319,1.5332,1.5353,1.5366,1.5385,1.5394,1.5406,1.5408,1.5415,1.5441,1.5453,1.5472,1.5479,1.5481,1.551,1.5507,1.5502,1.549,1.5515,1.5526,1.5531,1.5473,1.5472,1.5472,1.5472,0,0,1.5325,1.5351,1.5356,1.5366,1.5386,1.54,1.542,1.544,1.5451,1.5466,1.5484,1.5509,1.5506,1.5517,1.552,1.5534,1.5561,1.5528,1.5528,1.5535,1.5597,1.5601,1.5606,1.556,1.5561,1.5562,1.5596,0,1.535,1.5387,1.5394,1.5425,1.5444,1.5445,1.5464,1.5478,1.5486,1.5503,1.5512,1.553,1.5523,1.553,1.5545,1.5555,1.5574,1.5552,1.5578,1.5579,1.5575,1.5612,1.5616,1.5648,1.5601,1.5601,1.5602,0,1.5385,1.5402,1.5436,1.5456,1.5464,1.548,1.55,1.5516,1.5534,1.5539,1.5553,1.5555,1.5578,1.5566,1.5598,1.5583,1.5595,1.5602,1.5603,1.5605,1.5592,1.5617,1.5657,1.5663,1.5609,1.5608,1.5608,0,1.5401,1.5433,1.5458,1.5467,1.549,1.5502,1.5512,1.5529,1.5541,1.5559,1.5568,1.5588,1.5599,1.5615,1.5624,1.5614,1.5656,1.5644,1.5662,1.5662,1.567,1.5669,1.5714,1.5676,1.5676,1.5676,1.5676,0,1.5429,1.545,1.5466,1.5481,1.5506,1.5514,1.5539,1.5549,1.5564,1.5583,1.5585,1.5602,1.5612,1.5631,1.5638,1.5665,1.5669,1.5675,1.5677,1.5675,1.5674,1.5682,1.5681,1.5678,1.5677,1.5677,1.5677,0,1.5451,1.5462,1.549,1.5511,1.5516,1.5534,1.5552,1.5568,1.5577,1.56,1.5606,1.5621,1.5644,1.5654,1.5682,1.5687,1.5718,1.5717,1.5712,1.5713,1.573,1.5729,1.5782,1.579,1.5746,1.5747,1.5747,0,1.5468,1.5485,1.5508,1.5521,1.5532,1.5552,1.5566,1.5576,1.559,1.5613,1.5627,1.565,1.5669,1.5706,1.5719,1.5741,1.5742,1.5759,1.5745,1.5744,1.5744,1.5743,1.5746,1.5762,1.5762,1.5762,1.5763,0,1.5498,1.5504,1.5523,1.5546,1.5563,1.5581,1.5598,1.5609,1.5622,1.5638,1.5662,1.5677,1.5707,1.5731,1.5755,1.5766,1.5767,1.5767,1.5773,1.5771,1.5768,1.5772,1.572,1.5766,1.5766,1.5765,1.5765,1.5765,1.5519,1.5535,1.5555,1.5578,1.5592,1.561,1.5627,1.5639,1.566,1.5685,1.569,1.5716,1.5736,1.5768,1.5781,1.5802,1.5798,1.5805,1.5807,1.5809,1.5811,1.5765,1.5806,1.5806,1.5806,1.5806,1.5806,0,1.5551,1.5564,1.5585,1.5611,1.5629,1.563,1.5651,1.5666,1.569,1.5708,1.5728,1.5757,1.5781,1.5797,1.5822,1.5836,1.5838,1.5842,1.5841,1.5845,1.5812,1.5806,1.5841,1.5841,1.5841,1.5841,1.5841,1.5841,1.5569,1.5597,1.5606,1.5642,1.5655,1.5682,1.5694,1.571,1.5726,1.5758,1.5779,1.579,1.5808,1.5835,1.5857,1.5862,1.5871,1.5876,1.5881,1.585,1.5846,1.5843,1.5837,1.5878,1.5878,1.5911,1.5912,1.5912]},{"header":{"parameterUnit":"m.s-1","parameterCategory":1,"la1":30.2991,"la2":30.254,"lo1":-89.0895,"lo2":-89.0444,"dy":0.0017,"dx":0.0017,"nx":28,"ny":28,"refTime":"2024-03-21T21:00:00:Z","depth":0,"parameterNumber":3,"parameterNumberName":"V-component_of_WINDS"},"data":[0,0,0,0,0,0,0,0,0,0,0,0,0,0,0,0,0,0,0,0,0,0,0,0,0,0,0,0,0,0,0,0,0,0,0,0,0,0,0,0,0,0,0,0,0,0,0,0,0,0,0,0,0,0,0,0,0,0,-6.8179,-6.8179,0,-6.8168,-6.8168,-6.8168,-6.8116,-6.8115,-6.8114,-6.8113,-6.8097,-6.8098,-6.8099,0,0,0,0,0,0,0,0,0,0,0,0,0,-6.8155,-6.8155,-6.8179,-6.8179,-6.8179,-6.8168,-6.8168,-6.8168,-6.8116,-6.8115,-6.8114,-6.8112,-6.8097,-6.8098,-6.8099,0,0,0,0,0,0,0,0,0,0,0,0,0,-6.8157,-6.8156,-6.8179,-6.8152,-6.815,-6.8168,-6.8168,-6.8168,-6.8117,-6.8115,-6.8113,-6.8112,-6.8097,-6.8098,-6.8099,-6.8141,0,0,-6.8102,-6.8103,0,0,0,0,0,0,0,0,-6.8157,-6.8158,-6.8156,-6.8154,-6.8151,-6.8142,-6.8154,-6.8159,-6.8117,-6.8129,-6.8113,-6.8111,-6.8113,-6.8113,-6.8115,-6.8141,-6.814,-6.8102,-6.8103,-6.8103,-6.8104,0,0,0,0,0,0,0,-6.8156,-6.8158,-6.8175,-6.8156,-6.8153,-6.814,-6.8138,-6.8154,-6.8131,-6.8128,-6.8124,-6.8124,-6.8112,-6.8114,-6.8114,-6.814,-6.8102,-6.8103,-6.8104,-6.8104,-6.8203,-6.8205,0,0,0,0,0,0,-6.8161,-6.8158,-6.8175,-6.8174,-6.815,-6.8142,-6.814,-6.8147,-6.8131,-6.8127,-6.8125,-6.8121,-6.8113,-6.8113,-6.8113,-6.8164,-6.8103,-6.8104,-6.8105,-6.8201,-6.8203,-6.8205,0,0,0,0,0,0,-6.816,-6.8163,-6.8175,-6.8165,-6.8166,-6.8144,-6.8152,-6.8147,-6.8149,-6.8129,-6.8124,-6.8132,-6.8111,-6.8112,-6.8136,-6.8162,-6.8105,-6.8106,-6.8198,-6.8201,-6.8204,-6.8264,0,0,0,0,0,0,-6.816,-6.8163,-6.8179,-6.8166,-6.8167,-6.8199,-6.8154,-6.8148,-6.8152,-6.8147,-6.8134,-6.813,-6.811,-6.8134,-6.8137,-6.8163,-6.8107,-6.8196,-6.82,-6.8203,-6.826,-6.8269,-6.8277,0,0,0,0,0,-6.8159,-6.8195,-6.818,-6.8182,-6.8186,-6.82,-6.8201,-6.8178,-6.8154,-6.817,-6.8158,-6.8131,-6.8159,-6.8137,-6.8139,-6.8166,-6.8194,-6.8199,-6.8203,-6.8256,-6.8267,-6.8276,0,0,0,0,0,0,-6.8209,-6.8192,-6.8176,-6.8208,-6.8207,-6.8192,-6.8211,-6.819,-6.8193,-6.8188,-6.8159,-6.8156,-6.8185,-6.8178,-6.8154,-6.8208,-6.8172,-6.8177,-6.8212,-6.8222,-6.823,-6.8232,-6.8107,0,0,0,0,0,-6.8224,-6.8238,-6.8222,-6.8252,-6.8253,-6.8233,-6.8237,-6.8221,-6.8217,-6.8215,-6.8204,-6.8201,-6.8209,-6.8215,-6.8221,-6.8258,-6.8256,-6.8278,-6.8287,-6.8294,-6.8299,-6.832,-6.833,-6.822,-6.822,-6.822,0,0,-6.8255,-6.8247,-6.8257,-6.8262,-6.8259,-6.8274,-6.8232,-6.8248,-6.8259,-6.8217,-6.824,-6.8232,-6.8226,-6.8258,-6.8271,-6.8253,-6.8329,-6.8299,-6.8305,-6.8306,-6.8326,-6.8336,-6.8346,-6.8223,-6.8222,-6.8222,0,0,-6.8319,-6.8314,-6.834,-6.8338,-6.8335,-6.8322,-6.8328,-6.8317,-6.8311,-6.8334,-6.8304,-6.8316,-6.833,-6.8328,-6.8329,-6.8396,-6.8372,-6.8399,-6.8443,-6.8464,-6.8473,-6.8481,-6.8506,-6.8515,-6.8403,-6.8404,-6.8404,0,-6.8357,-6.8379,-6.8356,-6.8376,-6.8379,-6.8345,-6.8371,-6.837,-6.8368,-6.8371,-6.8351,-6.8371,-6.8364,-6.8396,-6.8413,-6.8414,-6.8421,-6.84,-6.8474,-6.8481,-6.8488,-6.8512,-6.8521,-6.8407,-6.8407,-6.8406,-6.8406,0,-6.8427,-6.8443,-6.8464,-6.8466,-6.8472,-6.8495,-6.8476,-6.8484,-6.8468,-6.8457,-6.8482,-6.8473,-6.8479,-6.8485,-6.8467,-6.8515,-6.8504,-6.8479,-6.8443,-6.8502,-6.8524,-6.8533,-6.8412,-6.8411,-6.841,-6.8409,0,0,-6.852,-6.8512,-6.852,-6.8522,-6.8516,-6.8528,-6.855,-6.8557,-6.8566,-6.8566,-6.8585,-6.8599,-6.8578,-6.8579,-6.8561,-6.858,-6.8636,-6.8553,-6.8552,-6.857,-6.869,-6.871,-6.8721,-6.862,-6.8622,-6.8623,-6.8691,0,-6.8582,-6.8621,-6.8603,-6.8643,-6.8659,-6.8627,-6.8647,-6.8646,-6.8637,-6.8648,-6.8637,-6.8649,-6.8618,-6.8619,-6.8636,-6.8626,-6.866,-6.862,-6.8637,-6.8638,-6.8641,-6.8732,-6.8752,-6.8817,-6.8699,-6.8701,-6.8702,0,-6.866,-6.8667,-6.871,-6.8705,-6.8711,-6.8729,-6.8735,-6.8747,-6.8745,-6.8737,-6.8741,-6.8719,-6.8741,-6.8705,-6.8735,-6.8708,-6.8714,-6.871,-6.8712,-6.8713,-6.8674,-6.8737,-6.8836,-6.8847,-6.8715,-6.8714,-6.8713,0,-6.8726,-6.8745,-6.8775,-6.8777,-6.8771,-6.8785,-6.8783,-6.878,-6.8787,-6.8792,-6.8796,-6.8803,-6.8807,-6.8813,-6.8795,-6.877,-6.8828,-6.879,-6.8822,-6.8823,-6.8836,-6.8836,-6.894,-6.8838,-6.8838,-6.8838,-6.8838,0,-6.8798,-6.8826,-6.8805,-6.8823,-6.8854,-6.8832,-6.8863,-6.8858,-6.8856,-6.8872,-6.8845,-6.886,-6.8834,-6.8848,-6.8833,-6.8861,-6.8862,-6.8857,-6.8853,-6.886,-6.8861,-6.8864,-6.8859,-6.884,-6.884,-6.8839,-6.8839,0,-6.8877,-6.8863,-6.8894,-6.8887,-6.8886,-6.891,-6.8904,-6.892,-6.891,-6.8932,-6.8935,-6.8919,-6.8934,-6.8916,-6.8928,-6.8918,-6.8957,-6.8945,-6.8958,-6.8956,-6.899,-6.8987,-6.91,-6.9114,-6.9003,-6.9004,-6.9005,0,-6.8924,-6.8945,-6.8943,-6.8953,-6.8953,-6.8969,-6.8977,-6.8957,-6.8966,-6.8968,-6.8985,-6.8997,-6.9006,-6.9031,-6.902,-6.9029,-6.9019,-6.9058,-6.902,-6.9027,-6.9021,-6.9021,-6.9024,-6.9065,-6.9067,-6.9068,-6.9069,0,-6.901,-6.9004,-6.9016,-6.9028,-6.9039,-6.9046,-6.9051,-6.9061,-6.9041,-6.9052,-6.9068,-6.9075,-6.909,-6.9103,-6.911,-6.9107,-6.9085,-6.9081,-6.9089,-6.9097,-6.9105,-6.9103,-6.8981,-6.9078,-6.9077,-6.9077,-6.9076,-6.9076,-6.9076,-6.9094,-6.9097,-6.9112,-6.9115,-6.9122,-6.9138,-6.9132,-6.9145,-6.9156,-6.9143,-6.9164,-6.9163,-6.9171,-6.9172,-6.9187,-6.917,-6.9181,-6.9184,-6.9188,-6.9194,-6.9102,-6.9187,-6.9187,-6.9187,-6.9187,-6.9186,0,-6.9162,-6.9163,-6.9178,-6.9188,-6.9201,-6.9181,-6.9187,-6.9199,-6.9217,-6.922,-6.9231,-6.925,-6.9264,-6.9255,-6.9267,-6.9281,-6.9271,-6.9284,-6.9283,-6.9284,-6.9207,-6.92,-6.9292,-6.9292,-6.9292,-6.9292,-6.9292,-6.9292,-6.9208,-6.924,-6.9234,-6.9268,-6.9267,-6.9289,-6.9294,-6.93,-6.9303,-6.9326,-6.9338,-6.9333,-6.9332,-6.9344,-6.9356,-6.9353,-6.9359,-6.9376,-6.937,-6.9299,-6.9289,-6.9279,-6.9272,-6.9377,-6.9378,-6.9445,-6.9446,-6.9446]}]]